Location: State Camp
(41.2367°N, 77.7828°W)
Time: 03:17:54
(UTC-04:00)

Hubble Space Telescope - Visible Passes

Search period start: 30 May 2017 00:00
Search period end: 09 June 2017 00:00
Orbit: 538 x 542 km, 28.5° (Epoch: 29 May)

Date Brightness Start Highest point End Pass type
(mag) Time Alt. Az. Time Alt. Az. Time Alt. Az.
30 May 2.7 21:56:58 10° SSW 21:58:52 13° S 21:58:52 13° S visible
31 May 2.7 21:46:40 10° SSW 21:48:47 14° S 21:49:32 13° SSE visible
01 Jun 2.7 21:36:26 10° SSW 21:38:35 14° S 21:40:06 12° SSE visible
02 Jun 2.8 21:26:17 10° SSW 21:28:24 14° S 21:30:30 10° SSE visible
03 Jun 2.9 21:16:13 10° SW 21:18:12 13° S 21:20:11 10° SSE visible
